VINASAT-1

Last updated on Sun Jun 21 2026 00:03:04 GMT+0000 (Coordinated Universal Time)

1 32767U 08018A 26171.45486035 -.00000332 00000+0 00000+0 0 9991 2 32767 0.0148 320.4183 0001468 132.4887 111.4518 1.00272118 66626
UTC large
Height (km)
Speed (km/s)
/
Latitude / Longitude
Inclination (degrees)
Orbital Period (minutes)
Azimuth
Elevation
Range (km)
Doppler Factor

Next 0 passes for location: London (51.5072 / 0.1276)

Sorry there are no passes over London.
VINASAT-1